DateTimeUTC,F1_A11,F1_S11,BsB_S11,BsG_S11,BsR_S11,BbsB_S11,BbsG_S11,BbsR_S11,BaB_A11,BaG_A11,BaR_A11,Tu_S11,T_S11,Uu_S11,U_S11,P_S11,T1_A11
2021-07-01T01:00:00Z,00000200,20000000,,,,,,,-000.31,-000.17,-000.59,18.7,25.4,04.5,03.0,0668.5,31.2
2021-07-01T01:01:00Z,00000200,20000000,,,,,,,0000.25,0000.09,0000.56,18.7,25.4,04.2,02.8,0668.5,31.1
2021-07-01T01:02:00Z,00000200,20000000,,,,,,,-000.17,0000.08,-000.43,18.7,25.4,04.2,02.8,0668.5,31.1
2021-07-01T01:03:00Z,00000200,60000000,,,,,,,-000.41,-000.31,0000.20,18.7,25.5,04.2,02.8,0668.5,31.1
2021-07-01T01:04:00Z,00000200,40000000,0000.32,0000.60,0000.16,0000.62,0000.08,0000.41,0000.25,0000.05,-000.32,18.8,25.3,04.2,02.9,0669.4,31.1
2021-07-01T01:05:00Z,00000200,00000000,0000.56,-000.03,0000.06,-000.13,0000.17,0000.42,0000.04,0000.08,0000.20,18.8,25.2,04.3,02.9,0669.5,31.1
2021-07-01T01:06:00Z,00000200,00000000,0000.01,0000.20,-000.10,-000.16,0000.02,0000.17,0000.10,0000.24,-000.01,18.8,25.2,04.3,02.9,0669.5,31.1
2021-07-01T01:07:00Z,00000200,00000000,0000.10,0000.21,0000.16,-000.01,0000.07,0000.27,0000.26,0000.08,0000.16,18.7,25.2,04.4,03.0,0669.5,31.1
2021-07-01T01:08:00Z,00000200,00000000,0000.12,0000.03,-000.09,0000.63,0000.01,0000.19,-000.02,-000.42,0000.14,18.7,25.1,04.4,03.0,0669.5,31.1
2021-07-01T01:09:00Z,00000200,00000000,-000.16,0000.26,0000.39,-000.06,-000.10,0000.03,-000.00,0000.16,0000.16,18.7,25.1,04.5,03.0,0669.5,31.1
2021-07-01T01:10:00Z,00000200,00000000,0000.16,-000.04,0000.36,0000.21,0000.24,0000.13,0000.04,0000.25,-000.07,18.8,25.1,04.5,03.0,0669.5,31.1
2021-07-01T01:11:00Z,00000200,00000000,-000.18,-000.12,0000.09,-000.07,0000.24,0000.30,-000.03,0000.15,0000.20,18.8,25.2,04.4,03.0,0669.5,31.1
2021-07-01T01:12:00Z,00000200,00000000,-000.09,0000.22,-000.13,-000.44,-000.02,0000.10,0000.10,0000.10,-000.17,18.9,25.2,04.4,03.0,0669.5,31.1
2021-07-01T01:13:00Z,00000200,00000000,0000.67,0000.26,0000.16,-000.20,0000.14,0000.16,0000.17,-000.04,0000.08,19.0,25.2,04.5,03.1,0669.5,31.1
2021-07-01T01:14:00Z,00000200,00000000,0000.20,0000.00,0000.19,0000.10,0000.12,0000.24,0000.02,0000.06,0000.35,19.0,25.3,04.4,03.0,0669.6,31.1
2021-07-01T01:15:00Z,00000200,00000000,0000.14,0000.29,-000.23,-000.53,0000.25,-000.19,0000.06,0000.30,-000.24,19.1,25.3,04.4,03.0,0669.6,31.2
2021-07-01T01:16:00Z,00000200,00000000,0000.35,0000.07,-000.24,-000.11,0000.06,0000.25,-000.02,-000.31,0000.00,19.2,25.3,04.5,03.1,0669.6,31.2
2021-07-01T01:17:00Z,00000200,00000000,0000.77,0000.06,0000.04,-000.14,-000.16,0000.27,0000.15,0000.34,0000.22,19.2,25.4,04.4,03.0,0669.6,31.2
2021-07-01T01:18:00Z,00000200,00000000,0000.15,0000.25,-000.11,0000.17,0000.34,0000.26,-000.01,-000.28,-000.06,19.1,25.4,04.4,03.0,0669.6,31.1
2021-07-01T01:19:00Z,00000200,00000000,0000.05,0000.29,-000.12,-000.17,0000.04,0000.37,0000.09,0000.44,-000.29,19.1,25.3,04.5,03.1,0669.6,31.1
2021-07-01T01:20:00Z,00000200,00000000,-000.47,-000.03,0000.11,0000.10,0000.01,-000.00,-000.17,-000.43,0000.44,19.0,25.3,04.5,03.1,0669.6,31.1
2021-07-01T01:21:00Z,00000200,00000000,0000.27,0000.21,-000.05,-000.47,0000.08,0000.23,-000.14,0000.30,-000.39,18.9,25.2,04.6,03.1,0669.6,31.1
2021-07-01T01:22:00Z,00000200,00000000,-000.45,0000.16,0000.02,0000.17,0000.27,0000.10,0000.17,0000.02,0000.22,18.8,25.2,04.5,03.1,0669.6,31.1
2021-07-01T01:23:00Z,00000200,00000000,0000.44,0000.08,-000.10,0000.31,0000.16,0000.39,0000.10,-000.13,-000.16,18.8,25.2,04.5,03.1,0669.5,31.1
2021-07-01T01:24:00Z,00000200,00000000,0000.35,0000.12,0000.01,0000.28,-000.05,0000.16,0000.25,0000.31,-000.11,18.8,25.2,04.4,03.0,0669.5,31.1
2021-07-01T01:25:00Z,00000200,00000000,0000.43,-000.09,0000.38,-000.63,0000.27,0000.35,0000.38,0000.11,0000.31,18.9,25.2,04.5,03.0,0669.6,31.1
2021-07-01T01:26:00Z,00000200,00000000,-000.37,0000.31,0000.05,0000.01,0000.14,0000.41,-000.58,-000.26,-000.23,18.9,25.2,04.5,03.1,0669.6,31.1
2021-07-01T01:27:00Z,00000200,00000000,-000.04,0000.09,-000.08,0000.01,0000.16,0000.40,0000.32,0000.35,0000.47,19.0,25.3,04.5,03.1,0669.6,31.1
2021-07-01T01:28:00Z,00000200,00000000,-000.48,0000.24,-000.06,0000.11,-000.25,0000.35,0000.01,0000.15,-000.04,19.1,25.3,04.5,03.1,0669.6,31.1
2021-07-01T01:29:00Z,00000200,00000000,-000.05,0000.47,0000.11,0000.62,0000.25,0000.34,0000.09,-000.28,0000.11,19.1,25.3,04.5,03.1,0669.6,31.1
2021-07-01T01:30:00Z,00000200,00000000,0000.12,0000.21,-000.04,-000.23,0000.18,0000.38,-000.04,0000.32,0000.16,19.2,25.4,04.5,03.1,0669.6,31.2
2021-07-01T01:31:00Z,00000200,00000000,-000.01,0000.10,0000.38,0000.43,0000.09,0000.06,0000.11,-000.38,-000.22,19.2,25.4,04.5,03.1,0669.6,31.2
2021-07-01T01:32:00Z,00000200,00000000,-000.50,0000.04,0000.13,-000.12,0000.11,0000.23,-000.06,-000.23,0000.00,19.1,25.4,04.4,03.0,0669.6,31.1
2021-07-01T01:33:00Z,00000200,00000000,-000.15,0000.35,-000.05,0000.10,-000.07,0000.24,-000.01,0000.19,-000.13,19.1,25.4,04.4,03.0,0669.6,31.1
2021-07-01T01:34:00Z,00000200,00000000,0000.59,0000.14,0000.03,0000.28,0000.29,-000.09,-000.23,-000.28,0000.00,19.0,25.3,04.4,03.0,0669.6,31.1
2021-07-01T01:35:00Z,00000200,00000000,-000.16,0000.41,-000.03,-000.24,0000.23,0000.41,0000.02,-000.02,-000.26,18.9,25.3,04.3,02.9,0669.6,31.1
2021-07-01T01:36:00Z,00000200,00000000,0000.24,0000.32,0000.19,0000.53,0000.05,0000.22,0000.30,0000.55,0000.33,18.9,25.2,04.4,03.0,0669.6,31.1
2021-07-01T01:37:00Z,00000200,00000000,0000.49,0000.15,0000.22,0000.57,0000.01,-000.06,-000.36,-000.65,-000.10,18.8,25.2,04.3,02.9,0669.6,31.1
2021-07-01T01:38:00Z,00000200,00000000,-000.29,-000.01,0000.05,0000.23,0000.43,0000.02,0000.04,0000.29,-000.12,18.8,25.2,04.3,02.9,0669.6,31.0
2021-07-01T01:39:00Z,00000200,00000000,-000.10,0000.16,0000.34,0000.11,0000.19,0000.04,-000.08,-000.14,0000.11,18.8,25.2,04.3,02.9,0669.6,31.1
2021-07-01T01:40:00Z,00000200,00000000,-000.31,0000.54,0000.01,0000.02,-000.16,0000.16,0000.08,0000.33,0000.19,18.9,25.2,04.2,02.9,0669.6,31.1
2021-07-01T01:41:00Z,00000200,00000000,-000.12,0000.17,0000.12,0000.39,0000.27,0000.38,0000.11,-000.11,-000.15,18.9,25.2,04.3,02.9,0669.6,31.1
2021-07-01T01:42:00Z,00000200,00000000,-000.53,0000.22,0000.10,0000.31,0000.04,0000.29,0000.09,0000.10,0000.25,19.0,25.3,04.2,02.9,0669.6,31.1
2021-07-01T01:43:00Z,00000200,00000000,0000.16,0000.11,0000.12,0000.06,0000.45,0000.30,0000.20,-000.04,-000.55,19.1,25.3,04.3,02.9,0669.6,31.1
2021-07-01T01:44:00Z,00000200,00000000,-000.28,0000.21,0000.00,0000.85,0000.08,0000.07,-000.24,0000.03,0000.33,19.1,25.3,04.1,02.8,0669.7,31.1
2021-07-01T01:45:00Z,00000200,00000000,0000.76,0000.20,0000.01,-000.18,0000.37,0000.34,-000.12,0000.00,0000.02,19.1,25.4,04.1,02.8,0669.7,31.1
2021-07-01T01:46:00Z,00000200,00000000,-000.19,0000.31,0000.21,-000.03,0000.11,0000.30,-000.16,-000.24,-000.21,19.1,25.4,04.1,02.8,0669.7,31.1
2021-07-01T01:47:00Z,00000200,00000000,-000.62,0000.27,0000.11,0000.29,0000.10,0000.36,-000.14,0000.06,-000.00,19.1,25.3,04.0,02.7,0669.7,31.1
2021-07-01T01:48:00Z,00000200,00000000,0000.80,0000.11,0000.31,0000.06,0000.07,0000.66,0000.03,-000.36,0000.02,19.0,25.3,04.0,02.8,0669.7,31.1
2021-07-01T01:49:00Z,00000200,00000000,-000.00,0000.36,-000.07,-000.33,0000.21,0000.38,0000.10,0000.23,0000.27,18.9,25.3,03.9,02.7,0669.7,31.1
2021-07-01T01:50:00Z,00000200,00000000,0000.52,0000.10,0000.06,0000.72,0000.16,0000.41,0000.09,-000.06,-000.28,18.9,25.2,03.9,02.7,0669.7,31.1
2021-07-01T01:51:00Z,00000200,00000000,-000.23,0000.04,0000.08,-000.22,-000.15,0000.26,-000.13,-000.10,-000.18,18.8,25.2,04.0,02.7,0669.7,31.1
2021-07-01T01:52:00Z,00000200,00000000,-000.07,0000.45,0000.31,-000.16,0000.06,0000.27,-000.04,0000.00,0000.10,18.7,25.2,03.9,02.6,0669.7,31.1
2021-07-01T01:53:00Z,00000200,00000000,-000.10,0000.07,0000.21,0000.33,0000.11,0000.26,-000.04,-000.05,0000.05,18.7,25.1,03.8,02.6,0669.7,31.1
2021-07-01T01:54:00Z,00000200,00000000,0000.12,0000.05,-000.01,0000.09,0000.68,0000.32,0000.16,-000.10,0000.03,18.7,25.1,03.7,02.5,0669.7,31.1
2021-07-01T01:55:00Z,00000200,00000000,-000.04,0000.33,0000.58,-000.32,-000.21,0000.38,-000.32,0000.23,0000.03,18.8,25.1,03.7,02.5,0669.7,31.1
2021-07-01T01:56:00Z,00000200,00000000,-000.04,0000.20,0000.00,0000.38,0000.07,0000.18,-000.03,0000.06,-000.41,18.8,25.1,03.7,02.5,0669.7,31.1
2021-07-01T01:57:00Z,00000200,40000000,,,,,,,0000.61,0000.12,0000.70,18.9,25.2,03.8,02.6,0669.7,31.1
2021-07-01T01:58:00Z,00000200,60000000,,,,,,,-000.38,0000.16,-000.30,18.7,25.4,03.7,02.4,0668.8,31.1
2021-07-01T01:59:00Z,00000200,20000000,,,,,,,-000.37,-000.50,-000.05,18.8,25.5,03.6,02.4,0668.7,31.2
